Date String (YYYY-MM-DD hh:mm:ss) UTC,Instrument flags,Ambient pressure (hPa),Sample flow (lpm),Bypass flow (lpm),Sample temperature (°C),Ambient temperature (°C),ASC tube jacket temperature (°C),LED temperature (°C),Box temperature (°C),Sample RH (%),Span deviation,Mass concentration (μg/m³),Mass concentration (μg/m³),Mass concentration (μg/m³)
DateTimeUTC,F1_M11,P_M11,Q1_M11,Q2_M11,T1_M11,T2_M11,T3_M11,T4_M11,T5_M11,U1_M11,ZSPAN_M11,X0_M11,X2_M11,X1_M11
2022-11-12 15:00:00,,0827.9,4.99,0.00,22.9,22.1,00.0,31.6,24.8,10.2,0002.0,0012.97,0006.78,0006.07
2022-11-12 15:01:00,,0827.9,5.02,0.00,22.9,22.0,00.0,31.7,24.8,10.1,0001.8,0013.67,0006.95,0006.20
2022-11-12 15:02:00,,0827.9,4.98,0.00,22.9,21.9,00.0,31.7,24.8,10.1,0002.4,0013.71,0007.08,0006.31
2022-11-12 15:03:00,,0827.9,5.02,0.00,22.9,21.8,00.0,31.7,24.8,10.0,0001.9,0014.05,0007.19,0006.41
2022-11-12 15:04:00,,0827.9,4.99,0.00,22.9,21.8,00.0,31.7,24.8,09.9,0001.4,0014.82,0007.34,0006.51
2022-11-12 15:05:00,,0827.9,4.99,0.00,22.9,21.7,00.0,31.7,24.8,09.8,0001.4,0014.76,0007.45,0006.59
2022-11-12 15:06:00,,0827.9,5.01,0.00,22.9,21.7,00.0,31.7,24.8,09.7,0001.4,0016.35,0007.53,0006.65
2022-11-12 15:07:00,,0827.9,5.01,0.00,22.9,21.7,00.0,31.7,24.8,09.7,0001.5,0015.98,0007.65,0006.73
2022-11-12 15:08:00,,0827.9,5.00,0.00,22.9,21.7,00.0,31.7,24.7,09.7,0001.4,0016.16,0007.71,0006.78
2022-11-12 15:09:00,,0827.9,5.00,0.00,22.9,21.6,00.0,31.7,24.7,09.8,0001.6,0016.89,0007.75,0006.82
2022-11-12 15:10:00,,0827.9,4.98,0.00,22.9,21.6,00.0,31.7,24.7,09.9,0001.8,0017.26,0007.82,0006.85
2022-11-12 15:11:00,,0827.9,4.99,0.00,22.9,21.6,00.0,31.7,24.7,10.2,0001.7,0017.32,0007.86,0006.87
2022-11-12 15:12:00,,0827.9,5.01,0.00,22.9,21.6,00.0,31.7,24.7,10.2,0002.2,0016.68,0007.82,0006.86
2022-11-12 15:13:00,,0827.9,4.98,0.00,22.9,21.6,00.0,31.7,24.7,10.1,0001.9,0016.96,0007.81,0006.83
2022-11-12 15:14:00,,0827.9,5.01,0.00,22.9,21.6,00.0,31.7,24.7,10.2,0002.1,0016.49,0007.82,0006.82
2022-11-12 15:15:00,,0827.9,5.01,0.00,22.9,21.6,00.0,31.7,24.7,10.1,0002.4,0015.84,0007.78,0006.81
2022-11-12 15:16:00,,0827.9,4.98,0.00,22.9,21.6,00.0,31.7,24.7,10.1,0002.3,0016.35,0007.73,0006.77
2022-11-12 15:17:00,,0827.9,5.00,0.00,22.9,21.6,00.0,31.7,24.7,10.1,0002.1,0015.07,0007.69,0006.76
2022-11-12 15:18:00,,0827.8,5.01,0.00,22.8,21.6,00.0,31.7,24.7,10.2,0001.9,0014.94,0007.63,0006.74
2022-11-12 15:19:00,,0827.8,4.99,0.00,22.9,21.6,00.0,31.7,24.7,10.3,0002.0,0015.54,0007.60,0006.73
2022-11-12 15:20:00,,0827.9,4.99,0.00,22.9,21.6,00.0,31.7,24.7,10.4,0002.3,0015.09,0007.59,0006.73
2022-11-12 15:21:00,,0827.8,5.02,0.00,22.9,21.6,00.0,31.6,24.7,10.1,0002.2,0015.29,0007.53,0006.69
2022-11-12 15:22:00,,0827.9,4.98,0.00,22.9,21.6,00.0,31.6,24.8,10.2,0002.3,0015.07,0007.40,0006.64
2022-11-12 15:23:00,,0827.8,5.00,0.00,22.9,21.6,00.0,31.6,24.8,10.4,0001.5,0014.98,0007.30,0006.57
2022-11-12 15:24:00,,0827.8,5.02,0.00,22.9,21.6,00.0,31.6,24.7,10.3,0000.4,0014.87,0007.23,0006.52
2022-11-12 15:25:00,,0827.8,5.01,0.00,22.8,21.5,00.0,31.6,24.7,10.5,-000.2,0014.61,0007.16,0006.47
2022-11-12 15:26:00,,0827.9,4.98,0.00,22.8,21.5,00.0,31.6,24.7,10.5,0000.3,0014.76,0007.16,0006.43
2022-11-12 15:27:00,,0827.9,5.01,0.00,22.9,21.5,00.0,31.6,24.8,10.5,0000.5,0014.17,0007.15,0006.40
2022-11-12 15:28:00,,0828.0,5.01,0.00,22.8,21.5,00.0,31.6,24.7,10.4,0000.3,0014.66,0007.13,0006.38
2022-11-12 15:29:00,,0828.0,4.99,0.00,22.8,21.5,00.0,31.6,24.7,10.3,0000.3,0014.14,0007.10,0006.36
2022-11-12 15:30:00,,0827.9,4.99,0.00,22.8,21.5,00.0,31.6,24.7,10.3,0000.1,0013.60,0007.08,0006.33
2022-11-12 15:31:00,,0827.9,5.00,0.00,22.8,21.5,00.0,31.6,24.7,10.3,-000.2,0014.09,0007.06,0006.30
2022-11-12 15:32:00,,0828.0,5.00,0.00,22.8,21.5,00.0,31.6,24.7,10.3,-000.3,0013.57,0007.03,0006.28
2022-11-12 15:33:00,,0828.0,5.00,0.00,22.8,21.5,00.0,31.6,24.7,10.4,-000.1,0013.01,0007.08,0006.27
2022-11-12 15:34:00,,0828.0,4.99,0.00,22.8,21.5,00.0,31.6,24.7,10.4,0000.5,0013.41,0007.07,0006.28
2022-11-12 15:35:00,,0828.0,5.00,0.00,22.8,21.5,00.0,31.6,24.7,10.3,0000.9,0013.61,0007.03,0006.28
2022-11-12 15:36:00,,0828.0,5.01,0.00,22.8,21.5,00.0,31.6,24.7,10.3,0001.1,0013.46,0007.01,0006.29
2022-11-12 15:37:00,,0828.0,5.01,0.00,22.8,21.5,00.0,31.6,24.7,10.2,0001.2,0013.25,0006.97,0006.31
2022-11-12 15:38:00,,0828.0,5.01,0.00,22.8,21.5,00.0,31.6,24.7,10.1,0001.1,0013.25,0006.98,0006.33
2022-11-12 15:39:00,,0827.9,4.99,0.00,22.8,21.5,00.0,31.6,24.7,10.2,0001.3,0012.77,0007.01,0006.36
2022-11-12 15:40:00,,0827.9,4.99,0.00,22.8,21.4,00.0,31.6,24.7,10.1,0001.3,0012.66,0007.03,0006.39
2022-11-12 15:41:00,,0828.0,5.00,0.00,22.8,21.4,00.0,31.6,24.7,10.2,0001.2,0013.14,0007.04,0006.42
2022-11-12 15:42:00,,0828.0,5.02,0.00,22.8,21.4,00.0,31.6,24.7,10.2,0000.9,0012.36,0007.03,0006.44
2022-11-12 15:43:00,,0828.0,5.00,0.00,22.8,21.4,00.0,31.6,24.7,10.5,0001.0,0012.28,0007.07,0006.46
2022-11-12 15:44:00,,0827.9,4.99,0.00,22.8,21.4,00.0,31.6,24.7,10.5,0000.9,0012.23,0007.08,0006.49
2022-11-12 15:45:00,,0827.9,4.99,0.00,22.8,21.4,00.0,31.6,24.7,10.6,0000.8,0012.13,0007.09,0006.53
2022-11-12 15:46:00,,0827.9,5.01,0.00,22.8,21.4,00.0,31.6,24.7,10.5,0000.6,0012.46,0007.13,0006.54
2022-11-12 15:47:00,,0828.0,4.99,0.00,22.8,21.4,00.0,31.6,24.7,10.6,0000.6,0012.80,0007.20,0006.58
2022-11-12 15:48:00,,0828.0,5.00,0.00,22.8,21.4,00.0,31.6,24.7,10.6,0000.2,0013.13,0007.26,0006.60
2022-11-12 15:49:00,,0827.9,5.00,0.00,22.8,21.4,00.0,31.6,24.7,10.6,0000.1,0013.67,0007.28,0006.63
2022-11-12 15:50:00,,0828.0,5.00,0.00,22.8,21.4,00.0,31.6,24.7,10.4,0000.9,0013.84,0007.35,0006.65
2022-11-12 15:51:00,,0828.0,5.00,0.00,22.8,21.4,00.0,31.6,24.7,10.5,0001.2,0014.05,0007.43,0006.68
2022-11-12 15:52:00,,0828.0,4.98,0.00,22.8,21.4,00.0,31.6,24.7,10.5,0000.9,0013.53,0007.50,0006.73
2022-11-12 15:53:00,,0828.0,5.00,0.00,22.8,21.4,00.0,31.6,24.7,10.3,0001.2,0013.67,0007.53,0006.76
2022-11-12 15:54:00,,0828.0,5.02,0.00,22.8,21.4,00.0,31.5,24.7,10.3,0001.1,0015.44,0007.61,0006.82
2022-11-12 15:55:00,,0828.0,4.99,0.00,22.8,21.4,00.0,31.5,24.7,10.4,0000.2,0015.78,0007.65,0006.86
2022-11-12 15:56:00,,0827.9,5.00,0.00,22.8,21.4,00.0,31.5,24.7,10.3,-000.0,0015.78,0007.73,0006.88
2022-11-12 15:57:00,,0827.9,4.99,0.00,22.8,21.4,00.0,31.5,24.7,10.3,0000.3,0015.80,0007.82,0006.94
2022-11-12 15:58:00,,0827.9,5.00,0.00,22.8,21.4,00.0,31.5,24.7,10.3,0000.8,0016.77,0007.85,0006.98
2022-11-12 15:59:00,,0828.0,5.02,0.00,22.8,21.4,00.0,31.5,24.7,10.4,0001.0,0016.83,0007.90,0007.02
